Weather History for West Plains, MO

Change the Weather History Date:

Saturday, December 8, 2012

  Actual Average Record
Temperature  
Mean Temperature 52 °F 38 °F  
Max Temperature 55 °F 48 °F 68 °F (1952)
Min Temperature 48 °F 28 °F 2 °F (1950)
Degree Days  
Heating Degree Days 13 27  
Month to date heating degree days 86 209  
Since 1 July heating degree days 1030 1061  
Cooling Degree Days 0 0  
Month to date cooling degree days 0 0  
Year to date cooling degree days 1739 1354  
Growing Degree Days 2 (Base 50)    
Moisture  
Dew Point 47 °F    
Average Humidity 87    
Maximum Humidity 96    
Minimum Humidity 76    
Precipitation  
Precipitation T in 0.15 in 1.19 in (1971)
Month to date precipitation 0.32 1.25  
Year to date precipitation 30.24 43.83  
Sea Level Pressure  
Sea Level Pressure 29.90 in    
Wind  
Wind Speed 6 mph (ENE)    
Max Wind Speed 12 mph    
Max Gust Speed 16 mph    
Visibility 7 miles    
Events      
T = Trace of Precipitation, MM = Missing Value Source: NWS Daily Summary

Daily Weather History Graph

Daily Weather History Graph

Search for Another Location

Airport:

Trip Planner

Search our weather history database for the weather conditions in past years. The results will help you decide how hot, cold, wet, or windy it might be!

Date:

Astronomy

Dec. 08, 2012 Rise Set
Actual Time 7:08 AM CST 4:51 PM CST
Civil Twilight 6:39 AM CST 5:19 PM CST
Nautical Twilight 6:07 AM CST 5:52 PM CST
Astronomical Twilight 5:35 AM CST 6:23 PM CST
Moon 1:39 AM CST (12/8) 1:15 PM CST (12/8)
Length of Visible Light 10h 40m
Length of Day
9h 42m
Waning Crescent, 28% of the Moon is Illuminated
Dec 8
Waning Crescent
Dec 13
New
Dec 19
First Quarter
Dec 28
Full
Jan 4
Last Quarter

Hourly Weather History & Observations

Time (CST) Temp. Dew Point Humidity Pressure Visibility Wind Dir Wind Speed Gust Speed Precip Events Conditions
12:30 AM 55.4 °F 51.8 °F 88% 29.87 in 5.0 mi WSW 6.9 mph - N/A   Overcast
12:53 AM 55.0 °F 52.0 °F 89% 29.86 in 5.0 mi WSW 5.8 mph - N/A   Overcast
1:53 AM 54.0 °F 52.0 °F 93% 29.86 in 4.0 mi West 3.5 mph - N/A   Overcast
2:14 AM 53.6 °F 51.8 °F 94% 29.87 in 4.0 mi NW 3.5 mph - N/A   Overcast
2:53 AM 51.1 °F 48.9 °F 92% 29.86 in 2.5 mi Calm Calm - N/A   Mostly Cloudy
3:05 AM 51.8 °F 50.0 °F 94% 29.87 in 3.0 mi Calm Calm - N/A   Mostly Cloudy
3:28 AM 51.8 °F 50.0 °F 94% 29.87 in 5.0 mi Calm Calm - N/A   Overcast
3:41 AM 51.8 °F 50.0 °F 94% 29.88 in 6.0 mi Calm Calm - N/A   Overcast
3:53 AM 53.1 °F 50.0 °F 89% 29.87 in 5.0 mi Calm Calm - N/A   Overcast
4:53 AM 52.0 °F 48.0 °F 86% 29.88 in 7.0 mi North 4.6 mph - N/A   Overcast
5:06 AM 51.8 °F 48.2 °F 88% 29.89 in 7.0 mi North 6.9 mph - N/A   Overcast
5:53 AM 50.0 °F 46.0 °F 86% 29.90 in 5.0 mi North 8.1 mph - N/A   Overcast
6:18 AM 50.0 °F 46.4 °F 87% 29.92 in 5.0 mi North 3.5 mph - N/A   Overcast
6:53 AM 50.0 °F 46.0 °F 86% 29.91 in 5.0 mi NNE 3.5 mph - N/A   Overcast
7:06 AM 50.0 °F 46.4 °F 87% 29.93 in 4.0 mi Calm Calm - N/A   Overcast
7:15 AM 48.2 °F 46.4 °F 93% 29.93 in 4.0 mi Calm Calm - N/A   Overcast
7:33 AM 48.2 °F 44.6 °F 87% 29.93 in 4.0 mi North 4.6 mph - N/A   Mostly Cloudy
7:53 AM 50.0 °F 46.0 °F 86% 29.92 in 4.0 mi NNE 4.6 mph - N/A   Mostly Cloudy
8:35 AM 50.0 °F 44.6 °F 82% 29.94 in 6.0 mi North 9.2 mph - N/A   Haze
8:53 AM 48.9 °F 45.0 °F 86% 29.94 in 6.0 mi NE 12.7 mph - N/A   Overcast
9:53 AM 48.9 °F 45.0 °F 86% 29.96 in 7.0 mi ENE 6.9 mph - N/A   Overcast
10:53 AM 50.0 °F 45.0 °F 83% 29.95 in 9.0 mi ENE 6.9 mph - N/A   Overcast
11:53 AM 50.0 °F 45.0 °F 83% 29.93 in 9.0 mi East 5.8 mph - N/A   Overcast
12:23 PM 51.8 °F 44.6 °F 76% 29.92 in 10.0 mi East 5.8 mph - N/A   Overcast
12:53 PM 50.0 °F 45.0 °F 83% 29.92 in 9.0 mi NE 5.8 mph - N/A   Overcast
1:53 PM 50.0 °F 45.0 °F 83% 29.91 in 9.0 mi East 3.5 mph - N/A   Overcast
2:53 PM 51.1 °F 46.0 °F 83% 29.89 in 10.0 mi ENE 8.1 mph - N/A   Overcast
3:28 PM 51.8 °F 46.4 °F 82% 29.90 in 10.0 mi East 5.8 mph - N/A   Overcast
3:37 PM 51.8 °F 46.4 °F 82% 29.89 in 10.0 mi East 5.8 mph - N/A   Overcast
3:53 PM 51.1 °F 46.0 °F 83% 29.88 in 10.0 mi ENE 6.9 mph - N/A   Overcast
4:06 PM 51.8 °F 46.4 °F 82% 29.89 in 10.0 mi ENE 4.6 mph - N/A   Overcast
4:53 PM 50.0 °F 45.0 °F 83% 29.89 in 9.0 mi ENE 6.9 mph - N/A   Overcast
6:49 PM 50.0 °F 44.6 °F 82% 29.90 in 10.0 mi East 8.1 mph - N/A   Overcast
6:53 PM 50.0 °F 45.0 °F 83% 29.90 in 10.0 mi East 6.9 mph - N/A   Overcast
7:12 PM 50.0 °F 46.4 °F 87% 29.90 in 10.0 mi East 9.2 mph - N/A   Overcast
7:20 PM 50.0 °F 46.4 °F 87% 29.90 in 10.0 mi East 8.1 mph - N/A   Overcast
7:53 PM 50.0 °F 46.0 °F 86% 29.89 in 9.0 mi East 6.9 mph - N/A   Overcast
8:39 PM 50.0 °F 46.4 °F 87% 29.89 in 8.0 mi East 8.1 mph - N/A   Overcast
9:53 PM 50.0 °F 46.0 °F 86% 29.88 in 6.0 mi East 9.2 mph - N/A   Overcast
10:53 PM 48.9 °F 46.0 °F 90% 29.88 in 5.0 mi ESE 9.2 mph - N/A   Overcast
11:53 PM 48.0 °F 46.9 °F 96% 29.86 in 4.0 mi ESE 6.9 mph - 0.00 in   Overcast